OH6NMY Weather Reports


time (UTC)temp
F
wind
direction
speed
knots
gust
knots
rain 1hr
in
rain 24hr
in
rain mn
in
humidity
%
barometer
mb
20260508121724 56 296 7.0 9.6 0.00 0.00 0.00 28 1027.0
20260508121037 56 294 7.0 9.6 0.00 0.00 0.00 28 1026.7
20260508115924 56 295 5.2 9.6 0.00 0.00 0.00 27 1026.7
20260508115024 55 265 6.1 9.6 0.00 0.00 0.00 28 1026.7
20260508114124 56 287 7.0 9.6 0.00 0.00 0.00 28 1026.6
20260508113224 55 298 7.0 9.6 0.00 0.00 0.00 27 1026.8
20260508112324 55 290 4.3 7.0 0.00 0.00 0.00 29 1026.7
20260508111636 55 274 4.3 6.1 0.00 0.00 0.00 32 1026.8
20260508110524 54 288 5.2 7.8 0.00 0.00 0.00 29 1027.0
20260508105836 55 312 5.2 7.8 0.00 0.00 0.00 31 1026.8
20260508104724 54 324 8.7 14.8 0.00 0.00 0.00 33 1026.8
20260508103824 54 309 6.1 7.8 0.00 0.00 0.00 31 1026.7
20260508102924 55 312 5.2 9.6 0.00 0.00 0.00 30 1026.6
20260508102024 55 297 7.0 9.6 0.00 0.00 0.00 31 1026.8
20260508101124 54 299 6.1 11.3 0.00 0.00 0.00 32 1026.5
20260508100224 53 305 8.7 12.2 0.00 0.00 0.00 31 1027.0
20260508095537 53 313 8.7 13.0 0.00 0.00 0.00 32 1026.8
20260508094424 53 305 6.1 9.6 0.00 0.00 0.00 32 1026.8
20260508093737 53 291 6.1 9.6 0.00 0.00 0.00 32 1026.8
20260508092834 54 298 5.2 9.6 0.00 0.00 0.00 32 1026.6
20260508091724 53 313 7.8 13.0 0.00 0.00 0.00 33 1026.6
20260508090824 53 307 6.1 13.0 0.00 0.00 0.00 31 1026.5
20260508085924 52 315 7.8 9.6 0.00 0.00 0.00 33 1026.6
20260508085024 53 303 7.8 12.2 0.00 0.00 0.00 32 1026.4
20260508084336 52 324 7.0 9.6 0.00 0.00 0.00 33 1026.5
20260508083224 52 328 7.0 9.6 0.00 0.00 0.00 33 1026.4
20260508082324 52 317 7.0 9.6 0.00 0.00 0.00 34 1026.6
20260508081424 52 307 8.7 11.3 0.00 0.00 0.00 33 1026.2
20260508080524 51 292 6.1 11.3 0.00 0.00 0.00 33 1026.3
20260508075624 51 313 6.1 9.6 0.00 0.00 0.00 34 1026.3
20260508074724 52 335 6.1 11.3 0.00 0.00 0.00 37 1026.2
20260508073824 51 301 6.1 11.3 0.00 0.00 0.00 45 1026.2
20260508073134 49 292 5.2 9.6 0.00 0.00 0.00 49 1026.2
20260508072024 50 306 7.0 11.3 0.00 0.00 0.00 47 1025.8
20260508071124 50 286 4.3 7.8 0.00 0.00 0.00 52 1026.0
20260508070224 49 288 4.3 7.0 0.00 0.00 0.00 56 1025.7
20260508065324 48 306 4.3 6.1 0.00 0.00 0.00 58 1025.9
20260508064424 47 287 4.3 7.0 0.00 0.00 0.00 60 1025.7
20260508063524 48 312 3.5 5.2 0.00 0.00 0.00 61 1025.5
20260508062624 47 305 3.5 5.2 0.00 0.00 0.00 68 1025.6
20260508061724 46 299 2.6 3.5 0.00 0.00 0.00 68 1025.4
20260508060824 46 297 2.6 3.5 0.00 0.00 0.00 71 1025.4
20260508055924 45 291 3.5 7.0 0.00 0.00 0.00 72 1025.3
20260508055024 45 258 1.7 3.5 0.00 0.00 0.00 74 1025.3
20260508054124 45 276 2.6 5.2 0.00 0.00 0.00 74 1025.0
20260508053435 43 283 3.5 5.2 0.00 0.00 0.00 76 1025.4
20260508052324 42 282 2.6 3.5 0.00 0.00 0.00 78 1025.0
20260508051424 42 292 2.6 5.2 0.00 0.00 0.00 80 1024.7
20260508050524 41 273 2.6 5.2 0.00 0.00 0.00 81 1024.6
20260508045624 40 254 1.7 5.2 0.00 0.00 0.00 81 1024.7
20260508044724 40 249 2.6 3.5 0.00 0.00 0.00 83 1024.5
20260508043824 40 259 3.5 5.2 0.00 0.00 0.00 84 1024.4
20260508043136 39 262 2.6 5.2 0.00 0.00 0.00 84 1024.4
20260508042024 39 252 1.7 3.5 0.00 0.00 0.00 85 1024.4
20260508041124 38 247 0.9 1.7 0.00 0.00 0.00 85 1023.9
20260508040224 38 0 0.0 0.0 0.00 0.00 0.00 84 1024.1
20260508035324 37 0 0.0 0.0 0.00 0.00 0.00 85 1024.1
20260508034633 36 0 0.0 0.0 0.00 0.00 0.00 86 1024.0
20260508033524 34 0 0.0 0.0 0.00 0.00 0.00 88 1023.6
20260508032624 32 0 0.0 0.0 0.00 0.00 0.00 91 1023.8
20260508031724 30 0 0.0 0.0 0.00 0.00 0.00 91 1023.9
20260508030824 29 0 0.0 0.0 0.00 0.00 0.00 91 1023.7
20260508025924 29 0 0.0 0.0 0.00 0.00 0.00 90 1023.5
20260508025024 29 0 0.0 0.0 0.00 0.00 0.00 91 1023.5
20260508024334 29 0 0.0 0.0 0.00 0.00 0.00 91 1023.5
20260508023224 29 0 0.0 0.0 0.00 0.00 0.00 92 1023.4
20260508022324 28 0 0.0 0.0 0.00 0.00 0.00 91 1023.5
20260508021424 29 0 0.0 0.0 0.00 0.00 0.00 91 1023.1
20260508020524 29 0 0.0 0.0 0.00 0.00 0.00 91 1023.3
20260508015624 29 0 0.0 0.0 0.00 0.00 0.00 91 1023.1
20260508014724 29 0 0.0 0.0 0.00 0.00 0.00 91 1023.1
20260508013824 30 0 0.0 0.0 0.00 0.00 0.00 91 1022.8
20260508012924 30 0 0.0 0.0 0.00 0.00 0.00 90 1023.0
20260508012024 31 0 0.0 0.0 0.00 0.00 0.00 89 1022.6
20260508011124 32 247 0.0 1.7 0.00 0.00 0.00 89 1022.4
20260508010435 33 247 0.0 1.7 0.00 0.00 0.00 88 1022.4
20260508005324 34 249 1.7 3.5 0.00 0.00 0.00 87 1022.5
20260508004424 34 249 1.7 1.7 0.00 0.00 0.00 87 1022.4
20260508003524 34 251 1.7 3.5 0.00 0.00 0.00 87 1022.3
20260508002624 34 256 2.6 3.5 0.00 0.00 0.00 86 1022.3
20260508001724 34 251 0.9 3.5 0.00 0.00 0.00 86 1022.0
20260508000824 35 263 0.9 1.7 0.00 0.00 0.00 85 1022.0
20260507235924 35 270 0.9 1.7 0.00 0.00 0.00 85 1022.0
20260507235024 35 0 0.0 0.0 0.00 0.00 0.00 84 1022.0
20260507234336 35 270 0.9 3.5 0.00 0.00 0.00 84 1021.9
20260507233224 35 268 1.7 3.5 0.00 0.00 0.00 83 1021.6
20260507232324 36 288 2.6 3.5 0.00 0.00 0.00 81 1021.6
20260507231424 36 286 3.5 6.1 0.00 0.00 0.00 80 1021.6
20260507230524 36 276 1.7 3.5 0.00 0.00 0.00 80 1021.4
20260507225624 36 274 2.6 3.5 0.00 0.00 0.00 79 1021.5
20260507224935 36 264 2.6 3.5 0.00 0.00 0.00 79 1021.2
20260507224038 36 270 1.7 3.5 0.00 0.00 0.00 78 1021.4
20260507223135 36 271 2.6 3.5 0.00 0.00 0.00 78 1021.1
20260507222024 36 270 1.7 3.5 0.00 0.00 0.00 77 1021.2
20260507221124 36 276 2.6 3.5 0.00 0.00 0.00 77 1021.0
20260507220224 36 268 1.7 3.5 0.00 0.00 0.00 76 1021.1
20260507215324 36 270 0.0 1.7 0.00 0.00 0.00 76 1020.9
20260507214424 36 284 0.0 1.7 0.00 0.00 0.00 76 1020.7
20260507213524 36 285 1.7 5.2 0.00 0.00 0.00 75 1020.7
20260507212837 36 310 0.0 5.2 0.00 0.00 0.00 76 1020.7
20260507211724 37 264 0.9 1.7 0.00 0.00 0.00 75 1020.7
20260507210824 37 0 0.0 0.0 0.00 0.00 0.00 74 1020.6
20260507205924 37 0 0.0 0.0 0.00 0.00 0.00 74 1020.2
20260507205024 37 0 0.0 0.0 0.00 0.00 0.00 73 1020.3
20260507204124 38 270 0.0 1.7 0.00 0.00 0.00 73 1020.3
20260507203435 38 270 0.0 1.7 0.00 0.00 0.00 74 1020.2
20260507202538 38 0 0.0 0.0 0.00 0.00 0.00 73 1020.1
20260507201635 38 0 0.0 0.0 0.00 0.00 0.00 72 1020.0
20260507200737 39 279 0.0 1.7 0.00 0.00 0.00 71 1019.9
20260507195624 39 292 0.0 1.7 0.00 0.00 0.00 70 1019.8
20260507194724 40 292 0.9 3.5 0.00 0.00 0.00 68 1019.8
20260507193824 40 292 1.7 3.5 0.00 0.00 0.00 67 1019.5
20260507192924 41 295 3.5 6.1 0.00 0.00 0.00 66 1019.6
20260507192024 41 308 4.3 6.1 0.00 0.00 0.00 65 1019.4
20260507191124 42 301 4.3 6.1 0.00 0.00 0.00 65 1019.6
20260507190224 42 306 3.5 5.2 0.00 0.00 0.00 64 1019.2
20260507185324 42 312 3.5 3.5 0.00 0.00 0.00 64 1019.2
20260507184424 42 310 4.3 6.1 0.00 0.00 0.00 63 1019.3
20260507183524 43 304 3.5 3.5 0.00 0.00 0.00 61 1019.1
20260507182624 44 317 4.3 9.6 0.00 0.00 0.00 60 1018.9
20260507181724 44 315 7.8 11.3 0.00 0.00 0.00 59 1018.7
20260507181033 44 314 6.1 11.3 0.00 0.00 0.00 58 1018.8
20260507175924 45 313 6.1 9.6 0.00 0.00 0.00 56 1018.4
20260507175024 45 305 7.0 9.6 0.00 0.00 0.00 54 1018.6
20260507174124 45 300 7.0 11.3 0.00 0.00 0.00 53 1018.3
20260507173224 46 311 9.6 12.2 0.00 0.00 0.00 51 1018.3
20260507172535 46 311 8.7 12.2 0.00 0.00 0.00 50 1018.2
20260507171637 46 311 9.6 13.0 0.00 0.00 0.00 50 1018.2
20260507170524 46 292 8.7 12.2 0.00 0.00 0.00 52 1017.9
20260507165624 47 305 9.6 13.0 0.00 0.00 0.00 49 1018.0
20260507164724 47 294 8.7 13.0 0.00 0.00 0.00 49 1017.9
20260507163824 47 310 7.8 11.3 0.00 0.00 0.00 48 1017.7
20260507162924 47 297 8.7 12.2 0.00 0.00 0.00 47 1017.6
20260507162024 47 293 10.4 13.0 0.00 0.00 0.00 45 1017.5
20260507161124 47 304 9.6 12.2 0.00 0.00 0.00 45 1017.4
20260507160224 48 312 10.4 12.2 0.00 0.00 0.00 45 1017.4
20260507155533 48 296 8.7 13.9 0.00 0.00 0.00 44 1017.2
20260507154424 48 309 10.4 13.9 0.00 0.00 0.00 45 1017.2
20260507153524 49 301 10.4 13.9 0.00 0.00 0.00 45 1017.2
20260507152623 49 312 9.6 13.9 0.00 0.00 0.00 43 1017.0
20260507151938 49 311 9.6 12.2 0.00 0.00 0.00 43 1017.0
20260507150824 49 297 12.2 14.8 0.00 0.00 0.00 41 1016.9
20260507145923 49 302 12.2 15.6 0.00 0.00 0.00 40 1016.5
20260507145024 50 302 11.3 14.8 0.00 0.00 0.00 41 1016.7
20260507144337 49 291 11.3 15.6 0.00 0.00 0.00 40 1016.5
20260507143224 49 295 12.2 13.9 0.00 0.00 0.00 46 1016.3
20260507142324 50 290 12.2 20.0 0.00 0.00 0.00 47 1016.3
20260507141634 50 294 12.2 20.0 0.00 0.00 0.00 47 1016.3
20260507140524 51 290 10.4 13.0 0.00 0.00 0.00 45 1016.4
20260507135623 51 272 9.6 13.0 0.00 0.00 0.00 43 1016.3
20260507134724 51 292 10.4 15.6 0.00 0.00 0.00 42 1016.0
20260507133824 51 263 10.4 14.8 0.00 0.00 0.00 47 1015.7
20260507132924 51 259 9.6 13.0 0.00 0.00 0.00 48 1015.9
20260507132024 49 241 10.4 13.9 0.00 0.00 0.00 48 1015.9
20260507131124 50 248 8.7 13.0 0.00 0.00 0.00 45 1015.6
20260507130224 50 272 8.7 12.2 0.00 0.00 0.00 49 1016.0
20260507125324 51 273 7.0 9.6 0.00 0.00 0.00 48 1016.0
20260507124637 49 261 7.8 13.9 0.00 0.00 0.00 51 1015.8
20260507123524 50 230 6.1 7.8 0.00 0.00 0.00 48 1015.9
20260507122624 50 229 6.1 9.6 0.00 0.00 0.00 48 1015.8